Regional Weather Roundup
Issued by NWS

Home | Current Version | Previous Version | Graphics & Text | Print | Product List | Glossary On
Versions: 1 2 3 4 5 6 7 8 9 10 11 12 13 14 15 16 17 18 19 20 21 22 23 24 25 26 27 28 29 30 31 32 33 34 35 36 37 38 39 40 41 42 43 44 45 46 47 48 49 50
000
ASUS43 KOAX 231610
RWRNE

WEATHER ROUNDUP FOR NEBRASKA
NATIONAL WEATHER SERVICE OMAHA NE
1100 AM CDT SAT AUG 23 2014

NOTES: SATELLITE DATA IS BEING USED TO AUGMENT CLOUD COVER ABOVE
       12000 FEET.
       "FAIR" INDICATES FEW OR NO CLOUDS BELOW 12,000 FEET WITH NO
       SIGNIFICANT WEATHER AND/OR OBSTRUCTIONS TO VISIBILITY.

  * THESE STATIONS DO NOT REPORT WEATHER SUCH AS RAIN...SNOW OR FOG.

NEZ001>004-019>022-054>056-231700-
NEBRASKA PANHANDLE

CITY           SKY/WX    TMP DP  RH WIND       PRES   REMARKS
SCOTTSBLUFF    PTSUNNY   70  60  70 SW10      29.89F
ALLIANCE       PTSUNNY   67  62  84 VRB5      29.89S
CHADRON        CLOUDY    66  61  84 W3        29.87S
KIMBALL        MOSUNNY   68  59  74 W9        29.93S
SIDNEY         PTSUNNY   72  61  68 W7        29.92S
$$

NEZ057>060-069>072-079>082-231700-
SOUTHWEST NEBRASKA

CITY           SKY/WX    TMP DP  RH WIND       PRES   REMARKS
NORTH PLATTE   CLOUDY    68  65  90 SE7       29.87R
IMPERIAL       CLOUDY    70  64  81 SE8       29.89R
LEXINGTON      CLOUDY    73  69  90 SE7       29.86S
MCCOOK         PTSUNNY   73  67  81 S7        29.86S
OGALLALA       CLOUDY    69  64  86 CALM      29.88S
$$

NEZ005>010-023>029-035>040-094-231700-
NORTH CENTRAL NEBRASKA

CITY           SKY/WX    TMP DP  RH WIND       PRES   REMARKS
VALENTINE      CLOUDY    72  67  84 S16       29.85F
AINSWORTH      CLOUDY    72  66  80 SE13G21   29.87F
BROKEN BOW     CLOUDY    70  67  90 SE12      29.87F
O`NEILL        LGT RAIN  70  68  93 SE10      29.90F
ORD            CLOUDY    72  67  84 SE9       29.85F
THEDFORD       CLOUDY    72  66  82 SE10      29.88F
$$

NEZ041-046>049-061>064-073>077-083>087-231700-
SOUTH CENTRAL NEBRASKA

CITY           SKY/WX    TMP DP  RH WIND       PRES   REMARKS
GRAND ISLAND   CLOUDY    76  69  79 SE13G21   29.86F
AURORA         MOSUNNY   77  73  85 SE13G20   29.86F
HASTINGS       MOSUNNY   76  67  73 SE14      29.86S
HEBRON         SUNNY     81  69  66 SE8       29.86F
HOLDREGE       PTSUNNY   75  69  81 SE9       29.86S
KEARNEY *      CLOUDY    75  70  83 SE15      29.87S
YORK           MOSUNNY   77 N/A N/A SE13G21   29.87F
$$

NEZ011>018-030>034-042>045-231700-
NORTHEAST NEBRASKA

CITY           SKY/WX    TMP DP  RH WIND       PRES   REMARKS
NORFOLK        PTSUNNY   74  67  78 E15       29.90F
ALBION         CLOUDY    72  66  83 SE12      29.90F
BLAIR          CLOUDY    78  72  82 SE9       29.89F
FREMONT        CLOUDY    76  71  84 SE7       29.90S
TEKAMAH        CLOUDY    75  71  87 SE6       29.89S
WAYNE          CLOUDY    74  69  84 SE10      29.91S
$$

NEZ050>053-065>068-078-088>093-231700-
SOUTHEAST NEBRASKA

CITY           SKY/WX    TMP DP  RH WIND       PRES   REMARKS
LINCOLN        SUNNY     81  71  71 SE13      29.87F
OMAHA EPPLEY   CLOUDY    79  69  71 SE16      29.87F
BEATRICE       SUNNY     82  72  70 SE10      29.87F
FALLS CITY     MOSUNNY   85  76  74 S12       29.87F HX  94
NEBRASKA CITY  MOSUNNY   79  75  87 SE13      29.87F
PLATTSMOUTH    PTSUNNY   79  71  77 SE8G16    29.87F
$$

NEZ044-045-051>053-067-231700-
OMAHA AREA

CITY           SKY/WX    TMP DP  RH WIND       PRES   REMARKS
OMAHA EPPLEY   CLOUDY    79  69  71 SE16      29.87F
BLAIR          CLOUDY    78  72  82 SE9       29.89F
FREMONT        CLOUDY    76  71  84 SE7       29.90S
MILLARD        PTSUNNY   79  72  78 SE9       29.89R
OFFUTT AFB     PTSUNNY   78  76  93 E12       29.87F
PLATTSMOUTH    PTSUNNY   79  71  77 SE8G16    29.87F
WAHOO          CLOUDY    77  71  81 SE8       29.90R
$$



USA.gov is the U.S. government's official web portal to all federal, state and local government web resources and services.